Total_Precipitation_Accumulation
0.00 0.00 0.00 0.00 0.00 0.00 0.00 0.00 0.00 0.11 0.09 0.06 0.14 0.20 0.25 0.37 0.67 0.98 0.94 1.48 1.30 1.18 0.93 2.08 2.07 1.74 1.16 0.62 0.31 0.19 0.12 0.07 0.07 0.08 0.12 0.20 0.18 0.25 0.15 0.06 0.08 0.24 0.45 0.47 0.48 0.43 0.38 0.34 0.16
0.00 0.00 0.00 0.00 0.00 0.00 0.00 0.00 0.02 0.09 0.16 0.24 0.29 0.20 0.21 0.58 0.49 0.57 0.77 0.84 0.68 0.58 0.63 0.92 1.81 1.96 1.60 1.35 1.03 0.72 0.42 0.12 0.06 0.06 0.22 0.49 0.55 0.56 0.56 0.48 0.32 0.37 0.58 0.71 0.67 0.64 0.49 0.32 0.13
0.00 0.00 0.00 0.00 0.00 0.00 0.00 0.02 0.04 0.08 0.16 0.17 0.13 0.12 0.34 1.04 0.78 0.71 0.54 0.93 1.02 0.69 0.86 0.73 1.17 1.45 1.71 1.94 2.22 1.85 1.26 0.66 0.35 0.42 0.68 0.92 1.12 1.17 1.03 0.95 0.84 0.84 1.00 1.01 1.08 0.97 0.54 0.19 0.13
0.00 0.00 0.00 0.00 0.00 0.00 0.00 0.01 0.10 0.03 0.09 0.13 0.09 0.13 0.43 0.55 0.63 0.51 0.48 0.86 1.45 1.36 1.56 1.25 1.87 2.91 2.46 2.55 2.91 2.47 2.01 1.97 1.60 1.37 0.94 0.74 0.69 0.79 0.86 1.15 1.57 1.84 1.84 1.41 1.46 1.37 0.60 0.25 0.21
0.00 0.00 0.00 0.00 0.00 0.00 0.00 0.00 0.01 0.06 0.14 0.14 0.12 0.07 0.74 0.69 0.42 0.66 1.14 1.60 2.09 2.06 2.47 1.49 1.74 2.08 2.44 3.13 2.95 2.72 2.63 2.13 1.87 1.79 1.66 1.06 0.77 0.60 0.62 0.69 1.08 1.83 3.19 2.60 1.57 1.08 0.56 0.40 0.43
0.00 0.00 0.00 0.00 0.00 0.00 0.02 0.02 0.06 0.19 0.28 0.29 0.19 0.31 0.71 0.44 0.52 0.81 2.00 2.48 3.22 3.17 3.47 2.51 2.38 2.60 1.97 1.87 3.64 3.10 3.09 2.60 1.70 1.26 1.92 1.24 0.89 0.76 0.66 0.64 0.57 0.62 0.99 1.47 1.43 1.55 0.92 0.48 0.39
0.00 0.00 0.00 0.00 0.00 0.00 0.02 0.10 0.33 0.58 0.31 0.13 0.10 0.51 0.99 0.79 0.56 0.66 1.63 3.73 5.19 6.82 7.53 6.09 3.85 3.32 3.56 2.42 2.36 3.32 3.32 2.81 1.82 1.41 1.20 1.33 1.00 0.86 0.72 0.55 0.51 0.45 0.42 0.54 0.56 0.66 0.68 0.55 0.42
0.00 0.00 0.00 0.00 0.00 0.02 0.08 0.18 0.24 0.28 0.45 0.39 0.14 0.69 1.00 0.63 0.56 0.86 1.20 2.92 4.49 9.09 9.74 7.11 5.14 3.17 1.75 2.48 2.23 2.24 3.06 3.68 2.41 1.93 1.75 1.41 1.27 1.06 0.69 0.51 0.54 0.74 0.70 0.46 0.33 0.44 0.52 0.47 0.33
0.00 0.00 0.00 0.00 0.01 0.04 0.10 0.14 0.33 0.26 0.22 0.31 0.21 0.48 0.64 0.77 0.77 0.82 1.07 1.95 3.72 5.13 5.31 6.64 6.40 3.97 2.72 2.47 2.35 1.80 1.70 2.69 3.65 2.49 2.06 1.76 1.04 1.04 0.80 0.83 0.79 0.81 0.72 0.71 0.64 0.54 0.47 0.43 0.32
0.00 0.00 0.00 0.00 0.01 0.08 0.27 0.30 0.29 0.16 0.34 0.23 0.37 0.52 0.80 0.81 0.65 0.60 0.93 1.29 2.06 2.41 3.31 2.92 3.25 3.02 2.32 2.98 3.04 1.71 1.39 1.17 2.63 2.93 2.17 1.60 1.02 1.03 0.95 0.71 0.77 0.84 0.76 0.84 0.81 0.77 0.61 0.44 0.23
0.00 0.00 0.00 0.00 0.01 0.08 0.10 0.06 0.12 0.07 0.26 0.43 0.81 0.78 0.91 0.76 0.54 0.31 0.40 0.83 0.88 0.94 1.06 1.24 1.51 1.46 1.49 1.99 1.60 1.49 1.27 1.07 1.35 2.54 2.03 1.32 0.92 0.87 1.14 0.61 0.70 1.07 1.14 0.89 0.73 0.56 0.51 0.39 0.31
0.00 0.00 0.00 0.00 0.00 0.01 0.01 0.09 0.18 0.18 0.75 0.41 0.48 0.42 0.55 0.33 0.24 0.27 0.30 0.33 0.35 0.55 0.76 1.01 0.80 1.00 1.16 1.41 1.42 1.09 1.10 1.01 0.95 1.79 1.84 1.26 0.90 0.61 0.70 0.37 0.47 1.06 1.05 0.79 0.62 0.39 0.42 0.46 0.47
0.00 0.00 0.00 0.00 0.03 0.02 0.07 0.04 0.08 0.65 0.29 0.16 0.19 0.20 0.23 0.16 0.12 0.13 0.13 0.15 0.19 0.41 0.70 0.96 0.77 0.80 0.83 0.68 0.80 0.77 0.71 0.93 0.88 0.96 1.56 1.33 0.80 0.42 0.45 0.43 0.47 0.86 0.82 0.89 0.54 0.48 0.56 0.53 0.54
0.00 0.00 0.00 0.00 0.02 0.02 0.04 0.07 0.11 0.65 0.30 0.05 0.06 0.07 0.06 0.06 0.04 0.04 0.03 0.03 0.15 0.40 0.62 1.00 1.21 0.86 0.88 0.65 0.61 0.60 0.55 0.78 1.04 0.86 1.10 1.56 0.95 0.56 0.60 0.53 0.44 0.62 0.62 0.69 0.60 0.34 0.49 0.63 0.54
0.00 0.00 0.00 0.00 0.01 0.02 0.04 0.10 0.17 0.40 0.14 0.05 0.00 0.01 0.05 0.09 0.04 0.01 0.00 0.01 0.03 0.15 0.29 1.14 1.62 1.19 1.05 0.62 0.67 0.66 0.70 0.68 0.80 0.93 1.22 1.34 1.04 0.76 0.63 0.66 0.51 0.44 0.47 0.44 0.55 0.53 0.53 0.54 0.55
0.00 0.00 0.00 0.02 0.00 0.02 0.04 0.48 0.14 0.06 0.07 0.06 0.00 0.00 0.03 0.05 0.02 0.01 0.00 0.01 0.01 0.03 0.25 1.32 1.42 0.99 1.08 0.84 0.95 1.34 0.75 0.51 0.66 0.78 0.92 1.05 1.08 0.87 0.80 0.70 0.55 0.54 0.46 0.31 0.43 0.34 0.44 0.48 0.43
0.00 0.00 0.00 0.00 0.00 0.01 0.02 0.19 0.15 0.05 0.06 0.08 0.01 0.00 0.00 0.00 0.02 0.00 0.02 0.02 0.02 0.04 0.31 0.89 0.98 0.99 1.33 1.64 1.71 1.23 0.67 0.45 0.69 0.65 0.67 0.87 1.23 0.93 0.81 0.75 0.56 0.64 0.62 0.36 0.35 0.33 0.36 0.40 0.38
0.00 0.00 0.00 0.00 0.00 0.00 0.00 0.02 0.15 0.05 0.06 0.06 0.02 0.00 0.01 0.00 0.00 0.02 0.08 0.06 0.03 0.07 0.47 0.76 0.84 1.33 1.82 1.57 0.78 0.47 0.51 0.52 0.64 0.56 0.60 0.78 1.40 1.13 0.96 0.96 0.87 0.78 0.61 0.52 0.55 0.48 0.45 0.39 0.30
0.01 0.01 0.03 0.01 0.00 0.00 0.00 0.01 0.02 0.03 0.04 0.04 0.02 0.01 0.01 0.00 0.01 0.05 0.08 0.11 0.12 0.20 0.56 0.70 0.86 0.73 0.54 0.42 0.41 0.38 0.41 0.33 0.38 0.37 0.55 0.72 1.14 1.32 1.08 1.08 1.04 0.98 0.79 0.58 0.48 0.56 0.70 0.58 0.57
0.05 0.09 0.04 0.01 0.01 0.06 0.04 0.01 0.00 0.01 0.17 0.03 0.01 0.01 0.00 0.00 0.00 0.01 0.02 0.08 0.22 0.43 0.48 0.41 0.33 0.20 0.20 0.17 0.28 0.34 0.37 0.30 0.25 0.32 0.43 1.00 1.07 1.14 1.10 1.10 0.94 0.87 1.04 1.14 1.06 0.88 0.82 0.63 0.74
0.02 0.02 0.00 0.01 0.05 0.17 0.11 0.03 0.00 0.00 0.02 0.05 0.03 0.03 0.01 0.01 0.04 0.06 0.09 0.12 0.12 0.10 0.06 0.09 0.15 0.10 0.21 0.23 0.23 0.28 0.41 0.48 0.41 0.38 0.42 0.73 0.79 0.89 0.88 1.09 1.06 1.00 1.18 1.34 1.20 1.08 1.02 1.10 1.13
0.06 0.02 0.01 0.02 0.17 0.20 0.18 0.15 0.02 0.01 0.00 0.08 0.02 0.04 0.04 0.05 0.05 0.03 0.01 0.01 0.01 0.05 0.08 0.12 0.13 0.19 0.21 0.33 0.14 0.26 0.20 0.22 0.22 0.26 0.28 0.51 0.64 0.71 0.76 0.74 1.09 0.96 1.22 1.47 1.41 1.24 1.05 1.23 1.27
0.02 0.01 0.04 0.09 0.12 0.17 0.12 0.28 0.05 0.07 0.14 0.23 0.18 0.17 0.10 0.08 0.07 0.06 0.03 0.05 0.06 0.05 0.08 0.09 0.13 0.25 0.27 0.26 0.20 0.35 0.30 0.22 0.19 0.27 0.36 0.47 0.62 0.57 0.77 0.91 0.90 1.17 1.42 1.50 1.55 1.74 1.59 1.38 1.21
0.06 0.06 0.20 0.22 0.17 0.24 0.03 0.18 0.11 0.17 0.45 0.45 0.49 0.26 0.14 0.13 0.18 0.16 0.14 0.14 0.12 0.11 0.23 0.12 0.13 0.13 0.29 0.35 0.39 0.48 0.63 0.47 0.29 0.23 0.25 0.34 0.54 0.49 0.72 1.09 1.31 1.22 1.27 1.63 1.60 1.75 1.77 1.83 1.73
0.06 0.16 0.37 0.52 0.43 0.16 0.09 0.15 0.17 0.27 0.31 0.61 0.77 0.46 0.19 0.20 0.17 0.16 0.21 0.32 0.29 0.28 0.35 0.18 0.10 0.16 0.23 0.41 0.55 0.60 1.09 1.25 1.16 0.74 0.44 0.53 0.61 0.48 0.51 0.87 1.35 1.50 1.48 1.60 1.85 1.83 2.00 2.03 1.98
0.06 0.15 0.32 0.70 0.53 0.27 0.19 0.24 0.42 0.38 0.52 0.45 0.31 0.64 0.26 0.25 0.24 0.28 0.61 0.43 0.38 0.50 0.57 0.39 0.22 0.28 0.31 0.46 0.72 0.74 0.80 1.07 1.78 1.93 1.96 1.57 1.10 0.86 0.79 0.99 1.25 1.48 1.45 1.48 1.64 2.02 2.11 2.25 2.48
0.03 0.08 0.11 0.55 0.53 0.76 0.61 0.68 0.77 0.32 0.58 0.92 0.73 0.45 0.41 0.26 0.31 0.46 0.55 0.32 0.31 1.01 1.23 0.70 0.52 0.36 0.37 0.45 0.62 0.65 0.92 1.28 1.58 2.05 2.33 3.07 2.91 2.17 1.75 1.69 1.54 1.46 1.50 1.71 1.82 1.82 1.82 1.68 1.62
0.03 0.09 0.45 0.94 1.24 0.86 0.43 0.79 1.29 1.24 1.34 1.43 1.20 0.83 0.67 0.45 0.39 0.45 0.73 0.31 0.32 1.25 1.06 0.69 0.73 0.83 0.69 0.47 0.49 0.61 0.74 0.95 1.36 1.64 2.56 2.80 3.21 3.52 3.07 2.58 2.25 1.94 1.89 1.80 1.47 1.38 1.53 1.79 1.64
0.02 0.13 0.39 0.63 0.40 1.01 1.09 1.35 1.44 1.87 1.69 1.31 1.48 1.39 0.84 0.69 0.79 0.52 0.66 0.46 0.34 0.66 1.08 1.10 0.89 1.28 1.36 1.21 1.13 0.85 1.10 1.08 1.43 1.59 1.97 2.66 2.51 2.62 3.32 3.31 2.75 2.51 2.06 1.99 1.86 1.50 1.30 1.38 1.81
0.03 0.05 0.20 0.80 0.80 1.10 1.69 1.94 2.13 1.51 0.85 0.74 0.96 1.41 1.13 0.77 1.13 0.84 0.66 0.62 0.60 0.47 0.60 1.23 1.35 1.70 2.01 2.58 2.54 1.68 1.79 1.77 1.64 1.83 1.87 1.87 2.14 2.32 2.21 2.46 2.86 2.57 2.52 2.14 2.08 1.94 1.86 1.88 1.74